TimeEST,TemperatureF,Dew PointF,Humidity,Sea Level PressureIn,VisibilityMPH,Wind Direction,Wind SpeedMPH,Gust SpeedMPH,PrecipitationIn,Events,Conditions,WindDirDegrees,DateUTC
12:56 AM,26.1,17.1,69,30.07,10.0,SSE,6.9,-,N/A,,Overcast,160,2013-12-19 05:56:00
1:56 AM,26.1,18.1,72,30.08,10.0,South,5.8,-,N/A,,Overcast,180,2013-12-19 06:56:00
2:56 AM,26.1,18.1,72,30.06,10.0,South,9.2,-,N/A,,Overcast,170,2013-12-19 07:56:00
3:56 AM,25.2,17.1,71,30.03,10.0,South,5.8,-,N/A,,Overcast,170,2013-12-19 08:56:00
4:56 AM,26.1,17.1,69,30.01,10.0,SSW,16.1,-,N/A,,Clear,200,2013-12-19 09:56:00
5:56 AM,27.1,17.1,66,30.00,10.0,SSW,16.1,-,N/A,,Clear,200,2013-12-19 10:56:00
6:24 AM,26.6,17.6,69,29.95,10.0,SW,15.0,-,N/A,,Scattered Clouds,220,2013-12-19 11:24:00
6:56 AM,28.0,18.1,66,29.99,10.0,SSW,17.3,-,N/A,,Partly Cloudy,210,2013-12-19 11:56:00
7:56 AM,29.1,17.1,61,30.00,10.0,SSW,12.7,-,N/A,,Clear,210,2013-12-19 12:56:00
8:56 AM,30.0,17.1,59,30.01,10.0,SSW,12.7,-,N/A,,Clear,200,2013-12-19 13:56:00
9:56 AM,32.0,18.1,57,30.01,10.0,SSW,10.4,-,N/A,,Clear,200,2013-12-19 14:56:00
10:56 AM,34.9,20.1,55,30.01,10.0,SSW,5.8,-,N/A,,Clear,200,2013-12-19 15:56:00
11:56 AM,37.9,22.1,53,29.99,10.0,SW,10.4,-,N/A,,Clear,220,2013-12-19 16:56:00
12:56 PM,39.9,23.0,51,29.99,10.0,SW,8.1,-,N/A,,Clear,230,2013-12-19 17:56:00
1:56 PM,41.0,24.1,51,29.99,10.0,WSW,4.6,-,N/A,,Clear,240,2013-12-19 18:56:00
2:56 PM,41.0,24.1,51,30.01,10.0,Calm,Calm,-,N/A,,Clear,0,2013-12-19 19:56:00
3:56 PM,39.9,25.2,56,30.03,10.0,South,3.5,-,N/A,,Clear,190,2013-12-19 20:56:00
4:56 PM,34.9,25.2,68,30.04,10.0,Calm,Calm,-,N/A,,Clear,0,2013-12-19 21:56:00
5:56 PM,32.0,26.1,79,30.07,10.0,Calm,Calm,-,N/A,,Clear,0,2013-12-19 22:56:00
6:56 PM,32.0,26.1,79,30.09,10.0,Calm,Calm,-,N/A,,Mostly Cloudy,0,2013-12-19 23:56:00
7:56 PM,32.9,26.1,76,30.09,10.0,East,3.5,-,N/A,,Mostly Cloudy,90,2013-12-20 00:56:00
8:56 PM,34.0,27.1,76,30.09,10.0,East,4.6,-,N/A,,Overcast,80,2013-12-20 01:56:00
9:56 PM,34.0,27.1,76,30.08,10.0,East,4.6,-,N/A,,Overcast,90,2013-12-20 02:56:00
10:56 PM,34.0,28.0,79,30.07,10.0,East,4.6,-,N/A,,Overcast,100,2013-12-20 03:56:00
11:56 PM,36.9,30.0,76,30.05,10.0,South,6.9,-,0.00,,Overcast,170,2013-12-20 04:56:00